[[{"header":{"parameterUnit":"m.s-1","parameterCategory":1,"la1":30.2991,"la2":30.254,"lo1":-89.0895,"lo2":-89.0444,"dy":0.0017,"dx":0.0017,"nx":28,"ny":28,"refTime":"2025-03-07T03:00:00:Z","depth":0,"parameterNumber":2,"parameterNumberName":"U-component_of_WINDS"},"data":[0,0,0,0,0,0,0,0,0,0,0,0,0,0,0,0,0,0,0,0,0,0,0,0,0,0,0,0,0,0,0,0,0,0,0,0,0,0,0,0,0,0,0,0,0,0,0,0,0,0,0,0,0,0,0,0,0,0,-1.4987,-1.4988,0,-1.5042,-1.5042,-1.5043,-1.5062,-1.5061,-1.5061,-1.5061,-1.5117,-1.5119,-1.5121,0,0,0,0,0,0,0,0,0,0,0,0,0,-1.4899,-1.4901,-1.4987,-1.4988,-1.4988,-1.5042,-1.5042,-1.5043,-1.5062,-1.5061,-1.5061,-1.5061,-1.5117,-1.5119,-1.5121,0,0,0,0,0,0,0,0,0,0,0,0,0,-1.4944,-1.4901,-1.4987,-1.5004,-1.5006,-1.5042,-1.5042,-1.5043,-1.5062,-1.5061,-1.5061,-1.5061,-1.5116,-1.5119,-1.5121,-1.5144,0,0,-1.5129,-1.513,0,0,0,0,0,0,0,0,-1.4942,-1.4947,-1.5001,-1.5003,-1.5005,-1.5045,-1.5032,-1.5077,-1.5062,-1.5041,-1.5061,-1.5061,-1.5093,-1.5098,-1.5109,-1.5146,-1.5149,-1.5129,-1.5131,-1.5132,-1.5133,0,0,0,0,0,0,0,-1.4938,-1.4945,-1.5009,-1.5002,-1.5004,-1.5009,-1.5015,-1.5041,-1.5068,-1.5042,-1.5044,-1.505,-1.5095,-1.5106,-1.511,-1.515,-1.5129,-1.5132,-1.5133,-1.5134,-1.5209,-1.5209,0,0,0,0,0,0,-1.4932,-1.4942,-1.5007,-1.501,-1.4972,-1.5011,-1.5018,-1.5032,-1.5068,-1.5073,-1.505,-1.5051,-1.5102,-1.5107,-1.5112,-1.5141,-1.5132,-1.5134,-1.5136,-1.5208,-1.5209,-1.5209,0,0,0,0,0,0,-1.493,-1.4938,-1.5005,-1.4977,-1.4986,-1.5013,-1.5029,-1.5034,-1.5045,-1.5074,-1.5079,-1.5057,-1.5102,-1.5109,-1.5136,-1.5143,-1.5136,-1.5138,-1.5208,-1.5208,-1.5209,-1.5198,0,0,0,0,0,0,-1.4928,-1.4937,-1.4946,-1.4977,-1.4987,-1.5027,-1.503,-1.5035,-1.505,-1.5051,-1.5082,-1.5087,-1.5102,-1.5132,-1.5138,-1.5147,-1.514,-1.5207,-1.5208,-1.5209,-1.5198,-1.5199,-1.5199,0,0,0,0,0,-1.4925,-1.4941,-1.4946,-1.4954,-1.4998,-1.5027,-1.5033,-1.5051,-1.505,-1.5059,-1.5078,-1.5086,-1.5142,-1.5135,-1.5142,-1.5151,-1.5207,-1.5208,-1.5209,-1.5198,-1.5198,-1.5199,0,0,0,0,0,0,-1.491,-1.4945,-1.4951,-1.4978,-1.4999,-1.503,-1.5042,-1.5051,-1.5073,-1.5073,-1.5094,-1.5101,-1.5127,-1.5142,-1.5133,-1.5175,-1.5175,-1.5177,-1.5164,-1.5165,-1.5165,-1.5161,-1.5142,0,0,0,0,0,-1.491,-1.493,-1.496,-1.498,-1.4991,-1.5015,-1.5028,-1.504,-1.5063,-1.5072,-1.5093,-1.5115,-1.5138,-1.5152,-1.5175,-1.5201,-1.5208,-1.5211,-1.5211,-1.5211,-1.5213,-1.5228,-1.5229,-1.5212,-1.5212,-1.5212,0,0,-1.491,-1.4931,-1.4943,-1.4978,-1.4996,-1.5017,-1.5022,-1.5044,-1.506,-1.5076,-1.5102,-1.5118,-1.5145,-1.5171,-1.5184,-1.5184,-1.5219,-1.5212,-1.5212,-1.5214,-1.5229,-1.5231,-1.5232,-1.5213,-1.5213,-1.5213,0,0,-1.492,-1.4939,-1.4958,-1.4976,-1.5003,-1.5019,-1.5023,-1.5053,-1.5064,-1.5091,-1.5103,-1.5123,-1.5161,-1.5179,-1.5194,-1.5211,-1.5219,-1.5218,-1.522,-1.5234,-1.5235,-1.5237,-1.5243,-1.5244,-1.522,-1.522,-1.522,0,-1.4917,-1.4948,-1.4966,-1.4987,-1.5002,-1.5018,-1.5037,-1.5054,-1.5087,-1.5098,-1.5098,-1.5147,-1.5166,-1.5196,-1.5201,-1.5212,-1.5218,-1.5214,-1.5234,-1.5235,-1.5237,-1.5242,-1.5245,-1.5219,-1.5219,-1.5219,-1.522,0,-1.4942,-1.4964,-1.4976,-1.5007,-1.5024,-1.5044,-1.5066,-1.508,-1.5091,-1.5107,-1.5134,-1.5158,-1.5185,-1.5193,-1.5204,-1.5226,-1.5225,-1.5229,-1.5229,-1.5237,-1.5243,-1.5246,-1.5219,-1.5219,-1.5219,-1.5219,0,0,-1.4944,-1.4985,-1.499,-1.5004,-1.5035,-1.5052,-1.5074,-1.51,-1.5112,-1.5135,-1.5153,-1.5185,-1.5189,-1.5206,-1.5219,-1.5231,-1.5243,-1.5234,-1.5235,-1.5234,-1.5269,-1.5265,-1.5267,-1.5249,-1.525,-1.525,-1.5266,0,-1.4958,-1.4996,-1.5013,-1.5043,-1.5063,-1.5078,-1.5097,-1.5118,-1.5134,-1.5153,-1.5171,-1.5193,-1.5197,-1.5207,-1.522,-1.5239,-1.525,-1.5238,-1.5266,-1.5267,-1.5258,-1.527,-1.5267,-1.5281,-1.5269,-1.5269,-1.5269,0,-1.4979,-1.5001,-1.5033,-1.5062,-1.5071,-1.5087,-1.5113,-1.5132,-1.5156,-1.5167,-1.5185,-1.5197,-1.522,-1.5219,-1.5251,-1.5243,-1.5255,-1.5266,-1.5267,-1.527,-1.5268,-1.5273,-1.5286,-1.5288,-1.5273,-1.5273,-1.5273,0,-1.4977,-1.5015,-1.5039,-1.505,-1.5085,-1.5096,-1.5111,-1.5135,-1.515,-1.5173,-1.5183,-1.5208,-1.5222,-1.5241,-1.526,-1.5258,-1.529,-1.5291,-1.5299,-1.5299,-1.5305,-1.5304,-1.5319,-1.5314,-1.5314,-1.5314,-1.5314,0,-1.499,-1.5009,-1.5038,-1.5052,-1.5074,-1.5094,-1.5115,-1.5131,-1.5153,-1.5171,-1.5187,-1.5203,-1.5228,-1.5248,-1.5263,-1.5287,-1.5293,-1.5302,-1.5306,-1.5301,-1.53,-1.5309,-1.5308,-1.5315,-1.5314,-1.5314,-1.5314,0,-1.4991,-1.5011,-1.5038,-1.5068,-1.5076,-1.5091,-1.5117,-1.5132,-1.5148,-1.5171,-1.5178,-1.5204,-1.5228,-1.5249,-1.5282,-1.5292,-1.5317,-1.5322,-1.5308,-1.531,-1.5317,-1.5316,-1.5339,-1.5343,-1.5335,-1.5335,-1.5335,0,-1.4998,-1.5012,-1.5044,-1.5057,-1.5072,-1.5093,-1.5108,-1.5129,-1.5144,-1.5173,-1.5185,-1.521,-1.5232,-1.527,-1.5292,-1.5317,-1.5322,-1.5328,-1.5326,-1.532,-1.5322,-1.532,-1.5322,-1.5328,-1.5328,-1.5328,-1.5328,0,-1.5007,-1.5017,-1.5038,-1.5062,-1.508,-1.51,-1.5121,-1.5131,-1.5156,-1.5173,-1.5198,-1.5214,-1.5247,-1.5273,-1.53,-1.5316,-1.5326,-1.5329,-1.5332,-1.5326,-1.5318,-1.5322,-1.5308,-1.5328,-1.5328,-1.5328,-1.5328,-1.5328,-1.5011,-1.5025,-1.5049,-1.5072,-1.509,-1.5109,-1.5125,-1.5143,-1.5164,-1.5192,-1.5204,-1.5229,-1.5254,-1.5292,-1.5308,-1.5328,-1.533,-1.5335,-1.5336,-1.5336,-1.5335,-1.5315,-1.5333,-1.5333,-1.5333,-1.5333,-1.5333,0,-1.5021,-1.5038,-1.5059,-1.5087,-1.5105,-1.5113,-1.5137,-1.5152,-1.5174,-1.5196,-1.5217,-1.5246,-1.527,-1.5294,-1.532,-1.5332,-1.5338,-1.5338,-1.5337,-1.5341,-1.5333,-1.5327,-1.5333,-1.5333,-1.5333,-1.5333,-1.5333,-1.5333,-1.5029,-1.5052,-1.5064,-1.5097,-1.5114,-1.5138,-1.5151,-1.5169,-1.5187,-1.5218,-1.5239,-1.5254,-1.5277,-1.5305,-1.5328,-1.5334,-1.5343,-1.5342,-1.535,-1.5342,-1.5341,-1.5341,-1.5336,-1.5344,-1.5344,-1.5356,-1.5356,-1.5356]},{"header":{"parameterUnit":"m.s-1","parameterCategory":1,"la1":30.2991,"la2":30.254,"lo1":-89.0895,"lo2":-89.0444,"dy":0.0017,"dx":0.0017,"nx":28,"ny":28,"refTime":"2025-03-07T03:00:00:Z","depth":0,"parameterNumber":3,"parameterNumberName":"V-component_of_WINDS"},"data":[0,0,0,0,0,0,0,0,0,0,0,0,0,0,0,0,0,0,0,0,0,0,0,0,0,0,0,0,0,0,0,0,0,0,0,0,0,0,0,0,0,0,0,0,0,0,0,0,0,0,0,0,0,0,0,0,0,0,4.1245,4.1244,0,4.1227,4.1227,4.1227,4.1253,4.1253,4.1254,4.1255,4.1233,4.1232,4.1231,0,0,0,0,0,0,0,0,0,0,0,0,0,4.1297,4.1296,4.1245,4.1244,4.1244,4.1227,4.1227,4.1227,4.1252,4.1254,4.1255,4.1256,4.1234,4.1232,4.123,0,0,0,0,0,0,0,0,0,0,0,0,0,4.1276,4.1296,4.1245,4.1255,4.1256,4.1227,4.1227,4.1227,4.1252,4.1254,4.1255,4.1256,4.1234,4.1232,4.123,4.119,0,0,4.1224,4.1223,0,0,0,0,0,0,0,0,4.1278,4.1274,4.1254,4.1254,4.1255,4.1244,4.1238,4.1214,4.1252,4.1253,4.1255,4.1257,4.1235,4.1233,4.1227,4.1189,4.1188,4.1223,4.1222,4.1221,4.1221,0,0,0,0,0,0,0,4.1279,4.1275,4.1238,4.1253,4.1254,4.126,4.1258,4.1233,4.1237,4.1253,4.1255,4.1253,4.1236,4.1229,4.1227,4.1187,4.1224,4.1222,4.122,4.1219,4.1117,4.1116,0,0,0,0,0,0,4.128,4.1276,4.1238,4.1237,4.127,4.1258,4.1256,4.1246,4.1237,4.1237,4.1252,4.1254,4.1232,4.1229,4.1226,4.118,4.1221,4.1219,4.1218,4.1119,4.1117,4.1116,0,0,0,0,0,0,4.1281,4.1276,4.1239,4.1257,4.1253,4.1255,4.1244,4.1245,4.1238,4.1236,4.1237,4.1244,4.1233,4.1229,4.1199,4.1179,4.1218,4.1216,4.1121,4.1118,4.1116,4.1086,0,0,0,0,0,0,4.1282,4.1276,4.1261,4.1257,4.1252,4.1213,4.1242,4.1243,4.1234,4.1237,4.1229,4.1229,4.1234,4.1202,4.1197,4.1177,4.1215,4.1122,4.112,4.1117,4.1089,4.1083,4.1078,0,0,0,0,0,4.1284,4.1252,4.126,4.1256,4.1234,4.1212,4.1209,4.1216,4.1233,4.1218,4.1217,4.1229,4.1182,4.1199,4.1193,4.1172,4.1124,4.112,4.1117,4.1091,4.1084,4.1078,0,0,0,0,0,0,4.1251,4.1251,4.1261,4.1227,4.1219,4.1216,4.1197,4.1208,4.1195,4.1198,4.1207,4.1205,4.1174,4.117,4.1189,4.1134,4.1156,4.1151,4.1138,4.1131,4.1126,4.1128,4.1213,0,0,0,0,0,4.1241,4.1225,4.1225,4.1194,4.1191,4.1195,4.1185,4.1192,4.1184,4.1181,4.1178,4.1169,4.1153,4.1141,4.1126,4.1088,4.1088,4.1071,4.1066,4.1061,4.1058,4.104,4.1033,4.1105,4.1105,4.1105,0,0,4.1218,4.1216,4.1204,4.1188,4.1183,4.1166,4.1192,4.1171,4.1159,4.1177,4.115,4.1148,4.1138,4.1106,4.1091,4.1101,4.1038,4.1057,4.1054,4.1053,4.1036,4.1029,4.1023,4.1103,4.1103,4.1104,0,0,4.1167,4.1164,4.1139,4.1135,4.1128,4.1131,4.1126,4.1121,4.1121,4.1095,4.1109,4.1093,4.1064,4.1058,4.1051,4.1,4.1012,4.0995,4.0967,4.095,4.0944,4.0939,4.0923,4.0917,4.0991,4.0991,4.0991,0,4.1139,4.1115,4.1125,4.1105,4.1098,4.1116,4.1092,4.1086,4.1074,4.1068,4.1081,4.1047,4.1041,4.1008,4.0997,4.0989,4.0984,4.0996,4.0944,4.094,4.0935,4.092,4.0913,4.0989,4.0989,4.0989,4.099,0,4.1081,4.1064,4.1045,4.1036,4.1026,4.1004,4.1011,4.1,4.1007,4.1009,4.0983,4.0977,4.0963,4.0955,4.0961,4.0923,4.093,4.0943,4.0965,4.0926,4.0912,4.0906,4.0986,4.0987,4.0988,4.0988,0,0,4.1009,4.1008,4.1001,4.0998,4.0993,4.0979,4.0958,4.0945,4.0937,4.0928,4.0911,4.0887,4.09,4.0892,4.0898,4.0882,4.0845,4.0897,4.0897,4.0889,4.0805,4.0797,4.079,4.0853,4.0852,4.0851,4.0807,0,4.0961,4.0926,4.0936,4.0901,4.0886,4.0904,4.0886,4.0881,4.0882,4.0869,4.087,4.0854,4.0872,4.0867,4.0853,4.0853,4.0829,4.0856,4.0837,4.0837,4.0841,4.0782,4.0772,4.0731,4.0801,4.08,4.0799,0,4.0899,4.0891,4.0856,4.0856,4.085,4.0833,4.0824,4.0811,4.0805,4.0808,4.08,4.081,4.0789,4.0811,4.0783,4.0802,4.0795,4.0794,4.0792,4.0792,4.0816,4.0781,4.0718,4.0712,4.079,4.0791,4.0792,0,4.0853,4.0832,4.0809,4.0806,4.0804,4.0793,4.0792,4.0788,4.078,4.0771,4.0767,4.0755,4.0748,4.0739,4.0745,4.076,4.0717,4.0739,4.0719,4.0718,4.0709,4.071,4.0645,4.0702,4.0702,4.0702,4.0702,0,4.0798,4.0776,4.0789,4.0775,4.0751,4.0762,4.0737,4.0738,4.0735,4.0721,4.0735,4.0721,4.073,4.0717,4.0722,4.0699,4.0695,4.0697,4.0699,4.0697,4.0697,4.0693,4.0696,4.0701,4.0701,4.0701,4.0702,0,4.0742,4.075,4.0726,4.0728,4.0728,4.071,4.0711,4.0698,4.0702,4.0684,4.068,4.0685,4.0671,4.0677,4.0661,4.0664,4.0636,4.064,4.0638,4.064,4.062,4.0623,4.0552,4.0544,4.0604,4.0604,4.0603,0,4.0708,4.0692,4.0693,4.0685,4.0684,4.0671,4.0665,4.0675,4.0667,4.0662,4.0649,4.0637,4.0628,4.0604,4.0606,4.0594,4.06,4.0576,4.0598,4.0597,4.0602,4.0603,4.0602,4.0572,4.0571,4.057,4.057,0,4.0646,4.0651,4.0642,4.0634,4.0627,4.0621,4.0615,4.0608,4.0619,4.0609,4.0596,4.0589,4.0575,4.0563,4.0553,4.0551,4.0562,4.0563,4.0558,4.0556,4.0556,4.0558,4.0628,4.0564,4.0565,4.0565,4.0566,4.0566,4.0601,4.0588,4.0588,4.0578,4.0576,4.0571,4.056,4.0563,4.0553,4.0543,4.055,4.0535,4.0531,4.052,4.0517,4.0505,4.0515,4.0507,4.0505,4.0503,4.0502,4.0558,4.0503,4.0503,4.0503,4.0504,4.0504,0,4.0542,4.0543,4.0533,4.0528,4.052,4.0532,4.0528,4.052,4.0508,4.0504,4.0496,4.0482,4.0471,4.0472,4.0462,4.0453,4.0458,4.045,4.0451,4.0451,4.0493,4.0499,4.0446,4.0446,4.0446,4.0446,4.0446,4.0446,4.051,4.0491,4.0496,4.0476,4.0477,4.0464,4.0461,4.0457,4.0455,4.0439,4.0431,4.0433,4.0432,4.0422,4.0413,4.0414,4.041,4.04,4.0403,4.0442,4.0448,4.0453,4.0459,4.0399,4.0399,4.0362,4.0362,4.0362]}]]